Location: Long Barn
(38.0930°N, 120.1344°W)
Time: 03:52:27
(UTC+00:00)

Hubble Space Telescope - Pass Details

Date: 29 January 2026
Orbit: 478 x 480 km, 28.5° (Epoch: 9 February)

Event Time Altitude Azimuth Distance (km) Brightness Sun altitude
Rises 03:33:03 0° 251° (WSW) 2,514 5.4 -26.4°
Reaches altitude 10° 03:36:01 10° 226° (SW) 1,636 3.8 -27.0°
Enters shadow 03:37:22 14° 206° (SSW) 1,416 3.2 -27.2°
